Погода Опарино

Хотите узнать прогноз погоды Опарино? Тогда Вам сюда: Погода Опарино

Поиск расширенной информации на нашем сайте:

Полезная информация:

Новости сайта



02.01.2020
Опубликован Долгосрочный прогноз погоды по городам России и ближнего зарубежья на январь 2020 года.
Карты: Прогноз на январь и февраль 2020 года, Сравнение прогнозируемой аномалии приземной температуры воздуха на январь 2020 года по разным моделям.




Погода Опарино - сегодня

Время (UTC), дата Ветер
(°,м/с) 
Видим.   Явления Облачность Т
(°С)
Тd
(°С)
f(%) Тe
(°С)
Pmin
(гПа)
dP
(гПа)
Po
(мм)
O2
(г/м3)
Тmin Tmax R s Состояние
почвы
12 29.11.20 090 (В) 1-2{03}  50000 м    10/10 600 м 
[Sc]
-10.6 -11.8 91 -10  1045.3  0.2  766  322           
15 29.11.20 090 (В) 1-2{03}  50000 м    10/10 600 м 
[Sc]
-9.3 -10.3 92 -9  1045.4  0.2  766  321    -9.3       
18 29.11.20 130 (ЮВ) 2-3{03}  50000 м    10/10 600 м 
[Sc]
-7.5 -8.4 93 -9  1045.1  -0.1  766  318           
21 29.11.20 140 (ЮВ) 2-3{05}  9000 м  слаб. снег  10/10 600 м 
[Sc]
-6.4 -7.3 93 -8  1045.1  0.1  766  317           
00 30.11.20 150 (ЮВ) 2-3{04}  50000 м  в посл. час снег  10/10 600 м 
[Sc]
-5.6 -6.4 94 -7  1044.6  -0.4  766  316           
03 30.11.20 140 (ЮВ) 2-4{05}  50000 м    10/10 600 м 
[Sc]
-4.9 -5.7 94 -6  1044.2  -0.4  766  315  -9.3    0.0  12  равномерный
сухой снег
100% 
06 30.11.20 150 (ЮВ) 2-3{04}  50000 м    10/10 600 м 
[Sc]
-4.2 -4.9 95 -5  1044.1  766  314           
09 30.11.20 140 (ЮВ) 2-3{05}  50000 м    10/10 600 м 
[Sc]
-2.9 -4.3 90 -4  1043.2  -0.7  765  312           
12 30.11.20 150 (ЮВ) 2-4{06}  50000 м    10/10 600 м 
[Sc]
-2.1 -4.3 85 -3  1042.6  -0.6  765  311           
15 30.11.20 150 (ЮВ) 3-6{06}  50000 м    ясно 
-4 -5.3 91 -6  1041.5  -1.2  764  313    -2.1       
18 30.11.20 160 (Ю) 4-7{09}  50000 м    8/8 600 м 
[Sc]
-4.1 -6.2 85 -7  1040.1  -1.4  763  313           
21 30.11.20 160 (Ю) 5-8{09}  50000 м    8/8 600 м 
[Sc]
-5.2 -7.5 84 -9  1040.2  763  314           
00 01.12.20 160 (Ю) 3-5{08}  50000 м    ясно 
-6.9 -9.2 84 -10  1039.9  -0.5  762  316           
03 01.12.20 160 (Ю) 3-6{07}  50000 м    3/0 верхняя 
[Ci fib]
-7.3 -9.9 82 -10  1039.5  -0.4  762  316  -7.3         
06 01.12.20 160 (Ю) 4-6{07}  50000 м    6/0 верхняя 
[Cc]
-7.6 -10.7 78 -11  1039.8  0.3  762  317  -7.7         
09 01.12.20 170 (Ю) 4-5{07}  50000 м    4/0 верхняя 
[Cc]
-5.8 -10 72 -9  1039.4  -0.3  762  315           
12 01.12.20 160 (Ю) 3-6{07}  50000 м    6/3 600 м верхняя 
[Sc|Cc]
-6.5 -9.7 78 -9  1039  -0.4  762  315           
15 01.12.20 170 (Ю) 3-5{08}  50000 м    8/5 600 м верхняя 
[Sc|Cc]
-6.9 -10.4 76 -10  1038.6  -0.4  761  316    -5.5       
21 01.12.20 180 (Ю) 4-7{07}  50000 м    10/0 верхняя 
[Cs]
-8.3 -10.8 82 -12  1038.9  0.1  761  317           
00 02.12.20 180 (Ю) 4-6{08}  50000 м    10/10 600 м 
[Sc]
-8.7 -11.1 83 -12  1038.7  -0.2  761  318           
03 02.12.20 180 (Ю) 3-5{07}  50000 м    10/10 600 м 
[Sc]
-8.7 -10.9 84 -12  1038.6  -0.1  761  318  -8.9      11  равномерный
сухой снег
100% 
06 02.12.20 190 (Ю) 3-6{07}  4000 м  слаб. снег  10/0 средняя 
[As op]
-8.3 -10.5 84 -11  1038.5  -0.1  761  317           
09 02.12.20 200 (Ю) 3-6{07}  50000 м  {снег}  10/10 600 м 
[Sc]
-7.7 -10.1 83 -10  1038.5  0.1  761  317           
12 02.12.20 200 (Ю) 3-5{06}  50000 м  {снег}  10/10 600 м 
[Sc]
-7.6 -9.8 84 -10  1038.5  761  316           
15 02.12.20 190 (Ю) 3-5{05}  20000 м    9/9 600 м 
[Sc]
-7.5 -9.5 86 -10  1038.7  0.2  761  316    -7.5  0.0     
Время (UTC), дата Ветер
(°,м/с) 
Видим.   Явления Облачность Т
(°С)
Тd
(°С)
f(%) Тe
(°С)
Pmin
(гПа)
dP
(гПа)
Po
(мм)
O2
(г/м3)
Тmin Tmax R s Состояние
почвы

Для получения пояснительной информации подведите курсор к названию столбца.

ПОГОДА Опарино - архив

Всё, что Вы хотите узнать о погоде Опарино - удобно и подробно!

Выберите нужную дату (начиная с 1 января 2019* года) и нажмите кнопку "Найти".
Будут отображены архивные сводки погоды по пункту Опарино, начиная с указанной даты.


Отображать данные в формате CSV (для использования в таблицах Excel)


Внимание! Наш архив погоды предназначен исключительно для личного некоммерческого использования в познавательных целях. Если Вам необходимы официальные справки о состоянии погоды (для производственных, юридических, коммерческих и т.п. целей), обращайтесь в органы Росгидромета.

*Примечание: данная дата относится к архиву по метеостанциям СССР (Россия, СНГ, Балтия).
Архив по метеостанциям Зарубежной Европы и Азии (кроме Китая) хранится 10 дней, по другим регионам земного шара (Китай, Африка, Америка, Австралия, Океания) - 1 день.

Опарино - район местоположения метеостанции


Название, широта, долгота, высота метеостанции:
Опарино 59.9°ш. 48.3°д. 180 м над ур. моря [Российская Федерация]

Дополнительная информация

В oтличие oт бoльшинства пoгoдных сайтoв мы публикуем пoдрoбную метеoинфoрмацию в детальнoм прoфессиoнальнoм фoрмате.

Характеристики температуры и влажнoсти вoздуха измеряются на высoте 2 м в тени вдали oт зданий и деревьев.
Скoрoсть ветра измеряется на высoте 10 м (на урoвне рoста челoвека скoрoсть ветра ниже в 1.5-2 раза). Если метеoстанция нахoдится в гoрoде или в лесу, тo скoрoсть ветра занижена на 2-4 м/с пo сравнению с oткрытым местoм. Скoрoсть ветра над акватoриями крупных рек и oзёр, а также на вершинах хoлмoв на 2-5 м/с выше, чем в oбычных услoвиях.
Атмoсфернoе давление в разных тoчках местнoсти мoжет значительнo oтличаться oт давления на метеoстанции, в зависимoсти oт услoвий рельефа (при пoдъёме на 10 м давление пoнижается примернo на 1 мм рт.ст.).